| time (UTC) | temp F | wind direction | speed MPH | gust MPH | rain 1hr in | rain 24hr in | rain mn in | humidity % | barometer mb |
| 20260903200109 | 81 | 118 | 1.0 | 7.0 | 0.02 | 0.21 | 0.14 | 86 | 1014.8 |
| 20260903195607 | 85 | 138 | 2.0 | 9.0 | 0.00 | 0.20 | 0.12 | 81 | 1014.8 |
| 20260903195105 | 87 | 92 | 0.0 | 2.0 | 0.00 | 0.21 | 0.12 | 82 | 1014.5 |
| 20260903194605 | 87 | 29 | 0.0 | 2.0 | 0.00 | 0.21 | 0.12 | 83 | 1014.3 |
| 20260903194105 | 87 | 308 | 0.0 | 5.0 | 0.00 | 0.21 | 0.12 | 84 | 1014.3 |
| 20260903193605 | 87 | 327 | 0.0 | 5.0 | 0.00 | 0.21 | 0.12 | 84 | 1014.4 |
| 20260903193106 | 87 | 312 | 1.0 | 3.0 | 0.00 | 0.21 | 0.12 | 82 | 1014.6 |
| 20260903192605 | 87 | 317 | 1.0 | 5.0 | 0.00 | 0.21 | 0.12 | 83 | 1014.7 |
| 20260903191605 | 87 | 321 | 2.0 | 7.0 | 0.00 | 0.21 | 0.12 | 83 | 1014.8 |
| 20260903191105 | 88 | 319 | 2.0 | 9.0 | 0.00 | 0.21 | 0.12 | 82 | 1014.8 |
| 20260903190605 | 88 | 16 | 0.0 | 0.0 | 0.00 | 0.21 | 0.12 | 82 | 1014.8 |
| 20260903190109 | 88 | 303 | 0.0 | 2.0 | 0.00 | 0.21 | 0.12 | 82 | 1014.9 |
| 20260903185605 | 88 | 329 | 0.0 | 0.0 | 0.10 | 0.21 | 0.12 | 80 | 1015.0 |
| 20260903185105 | 87 | 30 | 0.0 | 1.0 | 0.11 | 0.21 | 0.12 | 83 | 1015.1 |
| 20260903184604 | 87 | 239 | 0.0 | 1.0 | 0.11 | 0.21 | 0.12 | 82 | 1015.0 |
| 20260903184105 | 86 | 311 | 0.0 | 1.0 | 0.11 | 0.21 | 0.12 | 86 | 1014.9 |
| 20260903183605 | 86 | 314 | 0.0 | 2.0 | 0.11 | 0.21 | 0.12 | 86 | 1014.8 |
| 20260903183105 | 86 | 325 | 0.0 | 0.0 | 0.11 | 0.21 | 0.12 | 88 | 1014.7 |
| 20260903182605 | 85 | 324 | 0.0 | 1.0 | 0.11 | 0.21 | 0.12 | 89 | 1014.8 |
| 20260903181605 | 84 | 327 | 0.0 | 0.0 | 0.11 | 0.21 | 0.12 | 91 | 1015.0 |
| 20260903181104 | 84 | 328 | 0.0 | 0.0 | 0.11 | 0.21 | 0.12 | 89 | 1015.1 |
| 20260903180605 | 84 | 327 | 0.0 | 0.0 | 0.11 | 0.21 | 0.12 | 89 | 1015.2 |
| 20260903175604 | 85 | 95 | 0.0 | 0.0 | 0.01 | 0.11 | 0.02 | 86 | 1015.4 |
| 20260903175105 | 85 | 48 | 1.0 | 3.0 | 0.00 | 0.10 | 0.01 | 84 | 1015.6 |
| 20260903174605 | 86 | 63 | 1.0 | 8.0 | 0.00 | 0.10 | 0.01 | 83 | 1015.6 |
| 20260903173605 | 87 | 102 | 0.0 | 1.0 | 0.00 | 0.10 | 0.01 | 82 | 1015.7 |
| 20260903173104 | 88 | 336 | 0.0 | 3.0 | 0.00 | 0.10 | 0.01 | 79 | 1015.8 |
| 20260903172604 | 88 | 66 | 0.0 | 1.0 | 0.00 | 0.10 | 0.01 | 81 | 1015.8 |
| 20260903172105 | 88 | 63 | 1.0 | 5.0 | 0.00 | 0.10 | 0.01 | 80 | 1015.8 |
| 20260903171604 | 87 | 41 | 0.0 | 2.0 | 0.00 | 0.10 | 0.01 | 82 | 1015.9 |
| 20260903170605 | 87 | 147 | 0.0 | 1.0 | 0.00 | 0.10 | 0.01 | 83 | 1016.1 |
| 20260903170109 | 87 | 24 | 0.0 | 1.0 | 0.00 | 0.10 | 0.01 | 83 | 1016.0 |
| 20260903165605 | 86 | 126 | 0.0 | 1.0 | 0.00 | 0.10 | 0.01 | 82 | 1016.0 |
| 20260903165104 | 86 | 155 | 0.0 | 1.0 | 0.00 | 0.10 | 0.01 | 82 | 1015.9 |
| 20260903164605 | 86 | 154 | 0.0 | 1.0 | 0.00 | 0.10 | 0.01 | 82 | 1016.0 |
| 20260903164105 | 87 | 163 | 0.0 | 1.0 | 0.00 | 0.10 | 0.01 | 82 | 1016.0 |
| 20260903163605 | 87 | 163 | 0.0 | 0.0 | 0.00 | 0.10 | 0.01 | 84 | 1016.1 |
| 20260903163104 | 86 | 163 | 0.0 | 3.0 | 0.00 | 0.10 | 0.01 | 80 | 1016.2 |
| 20260903162604 | 87 | 99 | 0.0 | 0.0 | 0.00 | 0.10 | 0.01 | 81 | 1016.2 |
| 20260903162105 | 87 | 99 | 0.0 | 3.0 | 0.00 | 0.10 | 0.01 | 81 | 1016.2 |
| 20260903161604 | 87 | 161 | 1.0 | 3.0 | 0.00 | 0.10 | 0.01 | 83 | 1016.2 |
| 20260903161105 | 87 | 161 | 1.0 | 5.0 | 0.00 | 0.10 | 0.01 | 82 | 1016.3 |
| 20260903160605 | 87 | 151 | 0.0 | 5.0 | 0.00 | 0.10 | 0.01 | 81 | 1016.3 |
| 20260903160108 | 87 | 177 | 1.0 | 3.0 | 0.00 | 0.10 | 0.01 | 84 | 1016.3 |
| 20260903155605 | 86 | 172 | 1.0 | 7.0 | 0.00 | 0.10 | 0.01 | 83 | 1016.4 |
| 20260903155104 | 86 | 138 | 0.0 | 1.0 | 0.00 | 0.10 | 0.01 | 85 | 1016.4 |
| 20260903154605 | 85 | 57 | 0.0 | 1.0 | 0.00 | 0.10 | 0.01 | 86 | 1016.6 |
| 20260903154104 | 85 | 159 | 0.0 | 3.0 | 0.00 | 0.10 | 0.01 | 86 | 1016.5 |
| 20260903153605 | 85 | 146 | 0.0 | 3.0 | 0.00 | 0.10 | 0.01 | 86 | 1016.6 |
| 20260903152605 | 84 | 140 | 0.0 | 2.0 | 0.00 | 0.10 | 0.01 | 86 | 1016.6 |
| 20260903152104 | 84 | 175 | 0.0 | 1.0 | 0.00 | 0.10 | 0.01 | 87 | 1016.6 |
| 20260903151105 | 85 | 146 | 0.0 | 3.0 | 0.00 | 0.10 | 0.01 | 87 | 1016.6 |
| 20260903150605 | 85 | 148 | 0.0 | 1.0 | 0.00 | 0.10 | 0.01 | 86 | 1016.7 |
| 20260903150109 | 85 | 156 | 0.0 | 2.0 | 0.00 | 0.10 | 0.01 | 87 | 1016.6 |
| 20260903145605 | 84 | 182 | 0.0 | 1.0 | 0.00 | 0.10 | 0.01 | 88 | 1016.6 |
| 20260903144605 | 83 | 196 | 0.0 | 2.0 | 0.00 | 0.10 | 0.01 | 89 | 1016.6 |
| 20260903144104 | 83 | 165 | 1.0 | 3.0 | 0.00 | 0.10 | 0.01 | 89 | 1016.5 |
| 20260903143605 | 83 | 160 | 2.0 | 7.0 | 0.00 | 0.10 | 0.01 | 89 | 1016.5 |
| 20260903143104 | 82 | 151 | 1.0 | 3.0 | 0.00 | 0.10 | 0.01 | 91 | 1016.6 |
| 20260903142604 | 81 | 155 | 1.0 | 3.0 | 0.00 | 0.10 | 0.01 | 91 | 1016.6 |
| 20260903142104 | 81 | 166 | 3.0 | 6.0 | 0.00 | 0.10 | 0.01 | 91 | 1016.6 |
| 20260903141605 | 82 | 164 | 1.0 | 3.0 | 0.00 | 0.10 | 0.01 | 92 | 1016.6 |
| 20260903141104 | 81 | 164 | 1.0 | 2.0 | 0.00 | 0.10 | 0.01 | 93 | 1016.6 |
| 20260903140108 | 81 | 85 | 1.0 | 3.0 | 0.00 | 0.10 | 0.01 | 95 | 1016.5 |
| 20260903135604 | 80 | 173 | 2.0 | 5.0 | 0.00 | 0.10 | 0.01 | 95 | 1016.4 |
| 20260903134104 | 79 | 149 | 0.0 | 2.0 | 0.00 | 0.10 | 0.01 | 95 | 1016.5 |
| 20260903133604 | 79 | 149 | 2.0 | 3.0 | 0.00 | 0.10 | 0.01 | 95 | 1016.4 |
| 20260903133104 | 79 | 159 | 0.0 | 3.0 | 0.00 | 0.10 | 0.01 | 95 | 1016.4 |
| 20260903132605 | 79 | 13 | 2.0 | 3.0 | 0.00 | 0.10 | 0.01 | 95 | 1016.4 |
| 20260903131604 | 79 | 7 | 0.0 | 2.0 | 0.00 | 0.10 | 0.01 | 95 | 1016.4 |
| 20260903130604 | 78 | 7 | 0.0 | 3.0 | 0.00 | 0.10 | 0.01 | 95 | 1016.3 |
| 20260903130108 | 78 | 16 | 1.0 | 3.0 | 0.00 | 0.10 | 0.01 | 95 | 1016.4 |
| 20260903125104 | 78 | 28 | 0.0 | 1.0 | 0.00 | 0.10 | 0.01 | 95 | 1016.4 |
| 20260903124104 | 78 | 28 | 0.0 | 1.0 | 0.00 | 0.10 | 0.01 | 95 | 1016.4 |
| 20260903123605 | 78 | 28 | 0.0 | 2.0 | 0.00 | 0.10 | 0.01 | 95 | 1016.3 |
| 20260903123104 | 78 | 28 | 0.0 | 0.0 | 0.00 | 0.10 | 0.01 | 95 | 1016.3 |
| 20260903122604 | 78 | 28 | 0.0 | 2.0 | 0.00 | 0.10 | 0.01 | 95 | 1016.2 |
| 20260903122104 | 78 | 26 | 0.0 | 1.0 | 0.00 | 0.10 | 0.01 | 95 | 1016.1 |
| 20260903121605 | 78 | 26 | 0.0 | 2.0 | 0.00 | 0.10 | 0.01 | 95 | 1016.0 |
| 20260903121104 | 77 | 26 | 0.0 | 1.0 | 0.00 | 0.10 | 0.01 | 95 | 1016.1 |
| 20260903120604 | 77 | 26 | 1.0 | 3.0 | 0.00 | 0.10 | 0.01 | 95 | 1016.0 |
| 20260903120108 | 77 | 8 | 1.0 | 2.0 | 0.00 | 0.10 | 0.01 | 95 | 1015.9 |
| 20260903115604 | 77 | 8 | 0.0 | 1.0 | 0.00 | 0.10 | 0.01 | 95 | 1015.8 |
| 20260903115104 | 77 | 8 | 0.0 | 1.0 | 0.00 | 0.10 | 0.01 | 95 | 1015.8 |
| 20260903114605 | 77 | 7 | 0.0 | 2.0 | 0.00 | 0.10 | 0.01 | 95 | 1015.8 |
| 20260903114105 | 77 | 9 | 0.0 | 1.0 | 0.00 | 0.10 | 0.01 | 95 | 1015.7 |
| 20260903113604 | 77 | 9 | 1.0 | 3.0 | 0.00 | 0.10 | 0.01 | 95 | 1015.6 |
| 20260903112604 | 77 | 9 | 0.0 | 1.0 | 0.00 | 0.10 | 0.01 | 95 | 1015.4 |
| 20260903112104 | 77 | 9 | 0.0 | 1.0 | 0.00 | 0.10 | 0.01 | 95 | 1015.3 |
| 20260903111604 | 77 | 9 | 0.0 | 3.0 | 0.00 | 0.10 | 0.01 | 95 | 1015.2 |
| 20260903111104 | 77 | 9 | 0.0 | 2.0 | 0.00 | 0.10 | 0.01 | 95 | 1015.2 |
| 20260903110604 | 77 | 9 | 0.0 | 0.0 | 0.00 | 0.10 | 0.01 | 95 | 1015.2 |
| 20260903110109 | 77 | 9 | 0.0 | 0.0 | 0.00 | 0.10 | 0.01 | 95 | 1015.3 |
| 20260903105605 | 77 | 9 | 0.0 | 0.0 | 0.00 | 0.10 | 0.01 | 95 | 1015.2 |
| 20260903105104 | 77 | 9 | 0.0 | 2.0 | 0.00 | 0.10 | 0.01 | 95 | 1015.1 |
| 20260903104604 | 77 | 9 | 0.0 | 1.0 | 0.00 | 0.10 | 0.01 | 95 | 1015.1 |
| 20260903103606 | 77 | 9 | 0.0 | 1.0 | 0.00 | 0.10 | 0.01 | 95 | 1014.9 |
| 20260903103104 | 77 | 9 | 0.0 | 2.0 | 0.00 | 0.10 | 0.01 | 95 | 1014.9 |
| 20260903102604 | 77 | 9 | 0.0 | 3.0 | 0.01 | 0.10 | 0.01 | 95 | 1014.9 |
| 20260903102104 | 77 | 8 | 0.0 | 3.0 | 0.01 | 0.10 | 0.01 | 95 | 1014.7 |
| 20260903101604 | 77 | 358 | 1.0 | 3.0 | 0.01 | 0.10 | 0.01 | 95 | 1014.7 |
| 20260903101104 | 77 | 334 | 0.0 | 1.0 | 0.01 | 0.10 | 0.01 | 95 | 1014.7 |
| 20260903100604 | 77 | 334 | 1.0 | 2.0 | 0.01 | 0.10 | 0.01 | 95 | 1014.7 |
| 20260903100108 | 77 | 334 | 1.0 | 2.0 | 0.01 | 0.10 | 0.01 | 95 | 1014.7 |
| 20260903095604 | 77 | 313 | 0.0 | 1.0 | 0.01 | 0.10 | 0.01 | 95 | 1014.7 |
| 20260903095104 | 77 | 306 | 0.0 | 2.0 | 0.01 | 0.10 | 0.01 | 95 | 1014.7 |
| 20260903094604 | 77 | 309 | 0.0 | 3.0 | 0.01 | 0.10 | 0.01 | 95 | 1014.6 |
| 20260903094104 | 77 | 343 | 1.0 | 3.0 | 0.01 | 0.10 | 0.01 | 95 | 1014.8 |
| 20260903093605 | 77 | 343 | 1.0 | 3.0 | 0.01 | 0.10 | 0.01 | 95 | 1014.8 |
| 20260903093104 | 77 | 341 | 0.0 | 2.0 | 0.01 | 0.10 | 0.01 | 95 | 1014.8 |
| 20260903092604 | 77 | 340 | 0.0 | 2.0 | 0.00 | 0.09 | 0.00 | 95 | 1014.7 |
| 20260903092104 | 77 | 340 | 0.0 | 2.0 | 0.00 | 0.09 | 0.00 | 95 | 1014.7 |
| 20260903091605 | 77 | 339 | 0.0 | 1.0 | 0.00 | 0.09 | 0.00 | 95 | 1014.7 |
| 20260903091104 | 77 | 339 | 0.0 | 1.0 | 0.00 | 0.09 | 0.00 | 95 | 1014.8 |
| 20260903090604 | 77 | 339 | 0.0 | 2.0 | 0.00 | 0.09 | 0.00 | 95 | 1014.6 |
| 20260903090108 | 77 | 339 | 0.0 | 2.0 | 0.00 | 0.09 | 0.00 | 95 | 1014.5 |
| 20260903085604 | 77 | 340 | 1.0 | 3.0 | 0.00 | 0.09 | 0.00 | 95 | 1014.5 |
| 20260903084604 | 77 | 17 | 0.0 | 2.0 | 0.00 | 0.09 | 0.00 | 95 | 1014.4 |
| 20260903084104 | 77 | 16 | 0.0 | 1.0 | 0.00 | 0.09 | 0.00 | 95 | 1014.4 |
| 20260903083604 | 77 | 16 | 1.0 | 3.0 | 0.00 | 0.09 | 0.00 | 95 | 1014.5 |
| 20260903083104 | 77 | 16 | 0.0 | 2.0 | 0.00 | 0.09 | 0.00 | 95 | 1014.5 |
| 20260903082604 | 77 | 14 | 0.0 | 1.0 | 0.00 | 0.09 | 0.00 | 95 | 1014.5 |
| 20260903082103 | 77 | 14 | 0.0 | 1.0 | 0.00 | 0.09 | 0.00 | 95 | 1014.5 |
| 20260903081604 | 77 | 14 | 1.0 | 2.0 | 0.00 | 0.09 | 0.00 | 95 | 1014.5 |
| 20260903081104 | 77 | 14 | 0.0 | 1.0 | 0.00 | 0.09 | 0.00 | 95 | 1014.6 |
| 20260903080604 | 77 | 14 | 0.0 | 1.0 | 0.00 | 0.09 | 0.00 | 95 | 1014.6 |
| 20260903080110 | 77 | 14 | 0.0 | 0.0 | 0.00 | 0.09 | 0.00 | 95 | 1014.7 |
| 20260903075604 | 77 | 14 | 0.0 | 0.0 | 0.00 | 0.09 | 0.00 | 94 | 1014.7 |
| 20260903075105 | 77 | 14 | 0.0 | 0.0 | 0.00 | 0.09 | 0.00 | 94 | 1014.7 |
| 20260903074603 | 77 | 14 | 0.0 | 0.0 | 0.00 | 0.09 | 0.00 | 94 | 1014.8 |
| 20260903074104 | 77 | 14 | 0.0 | 0.0 | 0.00 | 0.09 | 0.00 | 94 | 1014.7 |
| 20260903073604 | 77 | 14 | 0.0 | 1.0 | 0.00 | 0.09 | 0.00 | 95 | 1014.9 |
| 20260903072604 | 77 | 14 | 0.0 | 0.0 | 0.00 | 0.09 | 0.00 | 95 | 1014.9 |
| 20260903071604 | 78 | 14 | 0.0 | 0.0 | 0.00 | 0.09 | 0.00 | 94 | 1014.8 |
| 20260903070604 | 78 | 14 | 0.0 | 1.0 | 0.00 | 0.09 | 0.00 | 94 | 1015.0 |
| 20260903070108 | 78 | 14 | 0.0 | 2.0 | 0.00 | 0.09 | 0.00 | 94 | 1015.1 |
| 20260903065604 | 78 | 14 | 0.0 | 1.0 | 0.00 | 0.09 | 0.00 | 94 | 1015.2 |
| 20260903065103 | 78 | 14 | 0.0 | 2.0 | 0.00 | 0.09 | 0.00 | 94 | 1015.2 |
| 20260903064603 | 78 | 40 | 0.0 | 3.0 | 0.00 | 0.09 | 0.00 | 94 | 1015.2 |
| 20260903064104 | 78 | 28 | 0.0 | 1.0 | 0.00 | 0.09 | 0.00 | 94 | 1015.2 |
| 20260903063604 | 78 | 28 | 0.0 | 1.0 | 0.00 | 0.09 | 0.00 | 94 | 1015.2 |
| 20260903062604 | 78 | 28 | 0.0 | 1.0 | 0.00 | 0.09 | 0.00 | 94 | 1015.3 |
| 20260903062104 | 78 | 28 | 0.0 | 0.0 | 0.00 | 0.09 | 0.00 | 94 | 1015.2 |
| 20260903061603 | 78 | 28 | 0.0 | 0.0 | 0.00 | 0.09 | 0.00 | 94 | 1015.2 |
| 20260903061103 | 78 | 28 | 0.0 | 0.0 | 0.00 | 0.09 | 0.00 | 94 | 1015.3 |
| 20260903060604 | 78 | 28 | 0.0 | 0.0 | 0.00 | 0.09 | 0.00 | 94 | 1015.3 |
| 20260903060108 | 78 | 28 | 0.0 | 1.0 | 0.00 | 0.09 | 0.00 | 94 | 1015.3 |
| 20260903055603 | 78 | 28 | 0.0 | 1.0 | 0.00 | 0.09 | 0.00 | 94 | 1015.4 |
| 20260903055104 | 78 | 28 | 0.0 | 0.0 | 0.00 | 0.09 | 0.00 | 94 | 1015.4 |
| 20260903054604 | 78 | 28 | 0.0 | 1.0 | 0.00 | 0.09 | 0.00 | 94 | 1015.5 |
| 20260903054104 | 78 | 28 | 0.0 | 1.0 | 0.00 | 0.10 | 0.00 | 94 | 1015.6 |
| 20260903053103 | 78 | 28 | 1.0 | 3.0 | 0.00 | 0.10 | 0.00 | 94 | 1015.6 |
| 20260903052603 | 78 | 28 | 0.0 | 0.0 | 0.00 | 0.10 | 0.00 | 94 | 1015.7 |
| 20260903052104 | 78 | 28 | 0.0 | 2.0 | 0.00 | 0.10 | 0.00 | 94 | 1015.8 |
| 20260903051604 | 78 | 28 | 0.0 | 3.0 | 0.00 | 0.10 | 0.00 | 94 | 1015.8 |
| 20260903051104 | 78 | 15 | 0.0 | 1.0 | 0.00 | 0.10 | 0.00 | 94 | 1015.9 |
| 20260903050606 | 78 | 15 | 0.0 | 8.0 | 0.00 | 0.10 | 0.00 | 94 | 1016.1 |
| 20260903050110 | 78 | 15 | 0.0 | 0.0 | 0.00 | 0.10 | 0.00 | 94 | 1016.0 |
| 20260903045605 | 78 | 15 | 0.0 | 1.0 | 0.00 | 0.10 | 0.00 | 94 | 1016.1 |
| 20260903045106 | 78 | 15 | 0.0 | 1.0 | 0.00 | 0.10 | 0.00 | 94 | 1015.9 |
| 20260903044606 | 78 | 15 | 0.0 | 1.0 | 0.00 | 0.10 | 0.00 | 94 | 1016.1 |
| 20260903044105 | 78 | 15 | 0.0 | 1.0 | 0.00 | 0.10 | 0.00 | 94 | 1016.1 |
| 20260903043605 | 78 | 15 | 0.0 | 0.0 | 0.00 | 0.10 | 0.00 | 94 | 1016.1 |
| 20260903043106 | 78 | 15 | 0.0 | 0.0 | 0.00 | 0.10 | 0.00 | 94 | 1016.2 |
| 20260903042106 | 78 | 15 | 0.0 | 1.0 | 0.00 | 0.10 | 0.00 | 94 | 1016.2 |
| 20260903041606 | 78 | 15 | 0.0 | 0.0 | 0.00 | 0.10 | 0.00 | 94 | 1016.2 |
| 20260903041106 | 78 | 15 | 0.0 | 0.0 | 0.00 | 0.10 | 0.00 | 94 | 1016.3 |
| 20260903040110 | 78 | 15 | 0.0 | 2.0 | 0.00 | 0.10 | 0.00 | 94 | 1016.4 |
| 20260903035606 | 78 | 15 | 0.0 | 0.0 | 0.00 | 0.10 | 0.10 | 94 | 1016.4 |
| 20260903035105 | 78 | 15 | 0.0 | 0.0 | 0.00 | 0.10 | 0.10 | 94 | 1016.4 |
| 20260903034606 | 78 | 15 | 0.0 | 2.0 | 0.00 | 0.10 | 0.10 | 94 | 1016.4 |
| 20260903034106 | 78 | 15 | 0.0 | 2.0 | 0.00 | 0.10 | 0.10 | 94 | 1016.3 |
| 20260903033605 | 78 | 15 | 0.0 | 1.0 | 0.00 | 0.10 | 0.10 | 94 | 1016.4 |
| 20260903033106 | 78 | 15 | 0.0 | 2.0 | 0.00 | 0.10 | 0.10 | 94 | 1016.3 |
| 20260903032605 | 78 | 15 | 1.0 | 2.0 | 0.00 | 0.10 | 0.10 | 94 | 1016.3 |
| 20260903032105 | 78 | 15 | 0.0 | 1.0 | 0.00 | 0.10 | 0.10 | 94 | 1016.3 |
| 20260903031606 | 78 | 15 | 0.0 | 2.0 | 0.00 | 0.10 | 0.10 | 94 | 1016.3 |
| 20260903031106 | 79 | 15 | 0.0 | 0.0 | 0.00 | 0.10 | 0.10 | 94 | 1016.4 |
| 20260903030605 | 79 | 15 | 0.0 | 0.0 | 0.00 | 0.10 | 0.10 | 94 | 1016.4 |
| 20260903030110 | 79 | 15 | 0.0 | 0.0 | 0.00 | 0.10 | 0.10 | 94 | 1016.3 |
| 20260903025605 | 79 | 15 | 0.0 | 0.0 | 0.00 | 0.10 | 0.10 | 94 | 1016.2 |
| 20260903025106 | 79 | 15 | 0.0 | 1.0 | 0.01 | 0.10 | 0.10 | 94 | 1016.3 |
| 20260903024606 | 79 | 15 | 0.0 | 1.0 | 0.01 | 0.10 | 0.10 | 94 | 1016.4 |
| 20260903024106 | 79 | 15 | 0.0 | 1.0 | 0.01 | 0.10 | 0.10 | 94 | 1016.4 |
| 20260903023106 | 79 | 15 | 1.0 | 2.0 | 0.01 | 0.10 | 0.10 | 94 | 1016.4 |
| 20260903022605 | 79 | 15 | 0.0 | 0.0 | 0.01 | 0.10 | 0.10 | 94 | 1016.5 |
| 20260903022106 | 79 | 15 | 0.0 | 1.0 | 0.01 | 0.10 | 0.10 | 94 | 1016.6 |
| 20260903021606 | 79 | 15 | 0.0 | 1.0 | 0.01 | 0.10 | 0.10 | 93 | 1016.6 |
| 20260903021105 | 79 | 14 | 0.0 | 2.0 | 0.01 | 0.10 | 0.10 | 94 | 1016.6 |
| 20260903020606 | 79 | 24 | 0.0 | 1.0 | 0.01 | 0.10 | 0.10 | 93 | 1016.5 |
| 20260903015605 | 79 | 24 | 0.0 | 2.0 | 0.02 | 0.10 | 0.10 | 94 | 1016.6 |
| 20260903014605 | 79 | 39 | 0.0 | 3.0 | 0.01 | 0.09 | 0.09 | 93 | 1016.5 |
| 20260903014106 | 79 | 43 | 1.0 | 3.0 | 0.02 | 0.09 | 0.09 | 93 | 1016.4 |
| 20260903013605 | 79 | 21 | 0.0 | 1.0 | 0.02 | 0.09 | 0.09 | 93 | 1016.3 |
| 20260903013105 | 79 | 21 | 1.0 | 3.0 | 0.02 | 0.09 | 0.09 | 93 | 1015.9 |
| 20260903012605 | 79 | 21 | 0.0 | 1.0 | 0.03 | 0.09 | 0.09 | 93 | 1016.1 |
| 20260903012105 | 79 | 13 | 0.0 | 3.0 | 0.03 | 0.09 | 0.09 | 93 | 1015.9 |
| 20260903011605 | 79 | 62 | 0.0 | 1.0 | 0.03 | 0.09 | 0.09 | 93 | 1015.9 |
| 20260903011105 | 79 | 38 | 0.0 | 0.0 | 0.03 | 0.09 | 0.09 | 93 | 1015.8 |
| 20260903010605 | 79 | 40 | 0.0 | 1.0 | 0.03 | 0.09 | 0.09 | 93 | 1015.6 |
| 20260903010110 | 79 | 292 | 0.0 | 1.0 | 0.04 | 0.09 | 0.09 | 93 | 1015.5 |
| 20260903005605 | 79 | 9 | 0.0 | 0.0 | 0.03 | 0.08 | 0.08 | 93 | 1015.4 |
| 20260903005105 | 79 | 7 | 0.0 | 0.0 | 0.03 | 0.08 | 0.08 | 93 | 1015.3 |
| 20260903004606 | 79 | 7 | 0.0 | 0.0 | 0.03 | 0.08 | 0.08 | 93 | 1015.4 |
| 20260903004105 | 79 | 6 | 0.0 | 0.0 | 0.03 | 0.07 | 0.07 | 93 | 1015.6 |
| 20260903003106 | 79 | 6 | 0.0 | 0.0 | 0.03 | 0.08 | 0.07 | 92 | 1015.6 |
| 20260903002606 | 79 | 6 | 0.0 | 0.0 | 0.02 | 0.07 | 0.06 | 92 | 1015.7 |
| 20260903002105 | 79 | 6 | 0.0 | 0.0 | 0.02 | 0.07 | 0.06 | 92 | 1015.7 |
| 20260903001605 | 79 | 6 | 0.0 | 0.0 | 0.02 | 0.07 | 0.06 | 92 | 1015.7 |
| 20260903001106 | 79 | 6 | 0.0 | 0.0 | 0.02 | 0.07 | 0.06 | 92 | 1015.6 |
| 20260903000605 | 79 | 6 | 0.0 | 0.0 | 0.02 | 0.07 | 0.06 | 92 | 1015.6 |
| 20260903000109 | 79 | 6 | 0.0 | 0.0 | 0.01 | 0.06 | 0.05 | 92 | 1015.6 |
| 20260902235606 | 79 | 6 | 0.0 | 0.0 | 0.01 | 0.06 | 0.05 | 91 | 1015.6 |
| 20260902234605 | 79 | 6 | 0.0 | 0.0 | 0.01 | 0.06 | 0.05 | 91 | 1015.5 |
| 20260902234105 | 79 | 6 | 0.0 | 0.0 | 0.00 | 0.05 | 0.04 | 91 | 1015.5 |
| 20260902233605 | 80 | 6 | 0.0 | 0.0 | 0.00 | 0.05 | 0.04 | 91 | 1015.4 |
| 20260902233105 | 80 | 6 | 0.0 | 0.0 | 0.00 | 0.05 | 0.04 | 91 | 1015.4 |
| 20260902232106 | 80 | 6 | 0.0 | 0.0 | 0.00 | 0.05 | 0.04 | 91 | 1015.5 |
| 20260902231105 | 80 | 23 | 0.0 | 0.0 | 0.00 | 0.05 | 0.04 | 91 | 1015.3 |
| 20260902230605 | 80 | 31 | 0.0 | 0.0 | 0.00 | 0.05 | 0.04 | 91 | 1015.4 |
| 20260902225605 | 80 | 31 | 0.0 | 0.0 | 0.00 | 0.05 | 0.04 | 90 | 1015.4 |
| 20260902225106 | 80 | 31 | 0.0 | 0.0 | 0.00 | 0.05 | 0.04 | 90 | 1015.4 |
| 20260902224605 | 80 | 31 | 0.0 | 0.0 | 0.00 | 0.05 | 0.04 | 90 | 1015.7 |
| 20260902224105 | 80 | 31 | 0.0 | 0.0 | 0.00 | 0.05 | 0.04 | 90 | 1015.8 |
| 20260902223606 | 80 | 31 | 0.0 | 0.0 | 0.00 | 0.05 | 0.04 | 90 | 1015.5 |
| 20260902223105 | 81 | 18 | 0.0 | 0.0 | 0.00 | 0.05 | 0.04 | 90 | 1015.3 |
| 20260902222605 | 81 | 18 | 0.0 | 0.0 | 0.00 | 0.05 | 0.04 | 90 | 1015.2 |
| 20260902221606 | 81 | 339 | 0.0 | 1.0 | 0.00 | 0.05 | 0.04 | 90 | 1015.0 |
| 20260902221105 | 82 | 335 | 0.0 | 0.0 | 0.00 | 0.05 | 0.04 | 90 | 1015.2 |
| 20260902215605 | 82 | 354 | 0.0 | 1.0 | 0.00 | 0.05 | 0.04 | 89 | 1015.1 |
| 20260902215105 | 83 | 353 | 0.0 | 0.0 | 0.00 | 0.05 | 0.04 | 89 | 1014.7 |
| 20260902214605 | 83 | 41 | 0.0 | 1.0 | 0.00 | 0.05 | 0.04 | 89 | 1014.8 |
| 20260902213605 | 83 | 105 | 0.0 | 1.0 | 0.00 | 0.05 | 0.04 | 89 | 1014.5 |
| 20260902213105 | 83 | 77 | 0.0 | 2.0 | 0.00 | 0.05 | 0.04 | 89 | 1014.5 |
| 20260902212605 | 83 | 107 | 0.0 | 1.0 | 0.00 | 0.05 | 0.04 | 88 | 1014.6 |
| 20260902212105 | 84 | 67 | 0.0 | 0.0 | 0.00 | 0.05 | 0.04 | 89 | 1014.8 |
| 20260902210605 | 85 | 47 | 0.0 | 1.0 | 0.00 | 0.05 | 0.04 | 90 | 1014.6 |
| 20260902210109 | 85 | 147 | 0.0 | 1.0 | 0.01 | 0.05 | 0.04 | 90 | 1014.8 |
| 20260902205605 | 84 | 142 | 0.0 | 0.0 | 0.02 | 0.05 | 0.04 | 90 | 1014.6 |
| 20260902204605 | 84 | 142 | 0.0 | 0.0 | 0.03 | 0.05 | 0.04 | 90 | 1014.5 |
| 20260902204105 | 84 | 142 | 0.0 | 0.0 | 0.03 | 0.05 | 0.04 | 90 | 1014.4 |
| 20260902203605 | 84 | 142 | 0.0 | 2.0 | 0.03 | 0.05 | 0.04 | 90 | 1014.6 |
| 20260902203105 | 84 | 156 | 0.0 | 0.0 | 0.03 | 0.05 | 0.04 | 91 | 1014.8 |
| 20260902202605 | 84 | 156 | 0.0 | 0.0 | 0.03 | 0.05 | 0.04 | 90 | 1014.7 |
| 20260902201606 | 84 | 156 | 0.0 | 0.0 | 0.03 | 0.05 | 0.04 | 89 | 1014.5 |
| 20260902201105 | 84 | 156 | 0.0 | 0.0 | 0.03 | 0.05 | 0.04 | 89 | 1014.6 |